User: anonymous   Login
Location: Stillwell
(40.4602°N, 82.0928°W)
Time: 05:12:45
(UTC-04:00)
Language:

Cosmos 2333 Rocket - Orbit

View from above orbital plane
View from above orbital plane
View from above satellite
View from above satellite

Ground track
Ground track

The orbit data is extracted from the following two-line orbital elements,

1 24298U 96051B   15143.80413370 -.00000156  00000-0 -57853-4 0  9992
2 24298 070.8458 214.4739 0018004 230.4988 268.2114 14.12419416965160
Epoch (UTC): 23 May 2015 19:17:57
Eccentricity: 0.0018004
inclination: 70.8458°
perigee height: 838 km
apogee height: 864 km
right ascension of ascending node: 214.4739°
argument of perigee: 230.4988°
revolutions per day: 14.12419416
mean anomaly at epoch: 268.2114°
orbit number at epoch: 96516

The dashed part of the orbit path shows where the satellite is in the earth's shadow,  

DLR